Location: Roanoke
(37.2710°N, 79.9420°W)
Time: 08:04:48
(UTC-04:00)

Envisat - Visible Passes

Search period start: 19 October 2019 00:00
Search period end: 29 October 2019 00:00
Orbit: 764 x 766 km, 98.1° (Epoch: 19 October)

Date Brightness Start Highest point End Pass type
(mag) Time Alt. Az. Time Alt. Az. Time Alt. Az.
19 Oct 3.1 19:07:08 10° SSE 19:12:05 56° ENE 19:17:03 10° N visible
19 Oct 6.0 20:48:37 10° SW 20:51:25 15° W 20:54:14 10° WNW visible
20 Oct 4.7 20:09:47 10° SSW 20:14:23 34° W 20:19:00 10° NNW visible
21 Oct 3.1 19:32:27 10° S 19:37:32 81° WSW 19:42:37 10° NNW visible
22 Oct 3.3 18:56:05 10° SE 19:00:52 44° ENE 19:05:41 10° N visible
22 Oct 5.7 20:36:29 10° SW 20:40:03 19° W 20:43:38 10° NW visible
23 Oct 4.2 19:58:15 10° S 20:03:05 44° W 20:07:55 10° NNW visible
24 Oct 2.9 19:21:13 10° SSE 19:26:16 79° ENE 19:31:22 10° N visible
25 Oct 5.3 20:24:37 10° SSW 20:28:42 24° W 20:32:49 10° NW visible
26 Oct 6.3 06:57:35 10° ENE 07:00:07 14° E 07:02:37 10° ESE visible
26 Oct 3.7 19:46:48 10° S 19:51:46 57° W 19:56:47 10° NNW visible
27 Oct 3.0 19:10:03 10° SSE 19:15:02 62° ENE 19:20:03 10° N visible
27 Oct 6.1 20:52:02 10° WSW 20:54:26 13° W 20:56:51 10° WNW visible
28 Oct 4.8 20:12:54 10° SSW 20:17:22 31° W 20:21:52 10° NW visible
